GBLDV EGEW-EGEP

Flight info

Callsign GBLDV
Flight time 0h -2m
Altitude 2400
Route 5921N00257W 5921N00256W 5921N00254W
Aircraft BN2P/L-V/N

Departure

Time 2026-04-27 17:00
Airport Westray Airport (EGEW)

Arrival

Time 2026-04-27 16:58
Airport Papa Westray Airport (EGEP)
Time Latitude Longitude Altitude Speed Heading
2026-04-27 16:57 59.35135 -2.89893 89 ft 0 kts 246°
2026-04-27 16:59 59.35132 -2.89905 88 ft 0 kts 246°
2026-04-27 16:59 59.35125 -2.90009 86 ft 15 kts 229°
2026-04-27 16:59 59.35006 -2.90138 88 ft 22 kts 212°
2026-04-27 16:59 59.34911 -2.90232 91 ft 2 kts 181°
2026-04-27 17:00 59.35084 -2.90043 90 ft 73 kts 25°
2026-04-27 17:00 59.35841 -2.90308 625 ft 113 kts 297°
2026-04-27 17:00 59.35937 -2.91979 710 ft 150 kts 272°
2026-04-27 17:01 59.35879 -2.93771 574 ft 110 kts 265°
2026-04-27 17:01 59.35732 -2.95232 244 ft 110 kts 256°
2026-04-27 17:01 59.35456 -2.96449 373 ft 98 kts 243°
2026-04-27 17:01 59.35084 -2.97654 371 ft 111 kts 155°
2026-04-27 17:02 59.34983 -2.95342 37 ft 10 kts 84°
2026-04-27 17:03 59.35088 -2.94711 64 ft 80 kts 64°
2026-04-27 17:03 59.34919 -2.93616 370 ft 101 kts 146°
2026-04-27 17:03 59.34326 -2.92840 700 ft 99 kts 127°
2026-04-27 17:03 59.34192 -2.91664 370 ft 85 kts 51°
2026-04-27 17:04 59.34657 -2.90877 303 ft 107 kts 38°
2026-04-27 17:04 59.34975 -2.89645 638 ft 129 kts 121°
2026-04-27 17:04 59.34185 -2.88935 651 ft 126 kts 226°
2026-04-27 17:04 59.34571 -2.89572 239 ft 85 kts 355°
2026-04-27 17:05 59.35088 -2.90081 459 ft 84 kts 320°
2026-04-27 17:05 59.34830 -2.91279 525 ft 132 kts 214°
2026-04-27 17:05 59.33974 -2.91797 697 ft 135 kts 162°
2026-04-27 17:05 59.34020 -2.90659 327 ft 96 kts 18°
2026-04-27 17:06 59.34626 -2.90373 184 ft 103 kts 13°
2026-04-27 17:06 59.35153 -2.89986 86 ft 22 kts 27°
2026-04-27 17:06 59.35146 -2.89978 84 ft 12 kts 203°
2026-04-27 17:06 59.34847 -2.90288 112 ft 78 kts 208°
2026-04-27 17:07 59.34319 -2.90167 313 ft 83 kts 226°